Home > Weather > South Bend > Past weeks

Flag for USA Past Weather in South Bend, Indiana, USA — Yesterday and Last 2 Weeks

Now
74 °F

Clear.


Feels Like: 71 °F
Forecast: 70 / 83 °F
Wind: 3 mph from Southwest

Location: Michiana Regional Airport

Current Time: Aug 28, 2016 at 1:18:22 AM

Latest Report: Aug 28, 2016 at 12:54 AM


Visibility: 10 mi

Pressure: 30.09 "Hg

Humidity: 94%

Dew Point: 72 °F

Location of South BendLocation

Past Weather in South Bend — Graph

°F

South Bend Temperature Yesterday

Maximum temperature yesterday: 82 °F (at 4:54 PM)
Minimum temperature yesterday: 68 °F (at 7:57 AM)
Average temperature yesterday: 74 °F

High & Low Weather Summary for the Past Weeks

 TemperatureHumidityPressure
High84 °F (Aug 17, 2:54 PM)100% (Aug 12, 11:54 PM)30.26 "Hg (Aug 12, 11:54 PM)
Low56 °F (Aug 22, 6:54 AM)45% (Aug 22, 2:54 PM)29.59 "Hg (Aug 20, 4:54 PM)
Average72 °F84%30.01 "Hg
* Reported Aug 12 11:54 PM — Aug 27 11:54 PM, South Bend, Weather by CustomWeather, © 2016

Note: Actual official high and low records may vary slightly from our data, if they occured in-between our weather recording intervals... More about our weather records

Advertising

South Bend Weather History for the Previous 24 Hours

Scroll right to see more
 ConditionsComfort  
Time TempWeatherWind HumidityBarometerVisibility
11:54 PM
Sat, Aug 27
74 °FClear.5 mph94%30.09 "Hg10 mi
10:54 PM74 °FClear.5 mph94%30.09 "Hg10 mi
9:54 PM76 °FClear.7 mph88%30.08 "Hg10 mi
8:54 PM77 °FSunny.8 mph88%30.06 "Hg10 mi
7:54 PM78 °FSunny.8 mph84%30.04 "Hg10 mi
6:54 PM80 °FSunny.8 mph79%30.03 "Hg10 mi
5:54 PM81 °FBroken clouds.9 mph74%30.03 "Hg10 mi
4:54 PM82 °FScattered clouds.10 mph72%30.03 "Hg10 mi
3:54 PM81 °FScattered clouds.12 mph74%30.04 "Hg10 mi
2:54 PM79 °FScattered clouds.9 mph79%30.05 "Hg10 mi
1:54 PM77 °FPassing clouds.8 mph82%30.07 "Hg10 mi
12:54 PM73 °FMostly cloudy.9 mph97%30.08 "Hg10 mi
11:54 AM71 °FPartly sunny.12 mph96%30.09 "Hg10 mi
10:54 AM70 °FLight rain. Mostly cloudy.No wind97%30.12 "Hg10 mi
10:03 AM69 °FScattered clouds.3 mph100%30.12 "Hg10 mi
9:54 AM68 °FThunderstorms. Fog.6 mph100%30.09 "Hg4 mi
9:00 AM69 °FThunderstorms. Fog.3 mph96%30.13 "Hg2 mi
7:57 AM68 °FStrong thunderstorms. Fog.10 mph96%30.14 "Hg2 mi
6:54 AM71 °FMostly cloudy.8 mph81%30.06 "Hg10 mi
5:54 AM70 °FPassing clouds.6 mph84%30.06 "Hg10 mi
4:54 AM70 °FClear.3 mph81%30.07 "Hg10 mi
3:54 AM71 °FClear.5 mph78%30.09 "Hg10 mi
2:54 AM70 °FLight rain. Passing clouds.5 mph81%30.11 "Hg10 mi
1:54 AM70 °FPassing clouds.5 mph81%30.11 "Hg10 mi
Weather by CustomWeather, © 2016

See weather overviewHow to use our weather pages